• In Hungary
  • List of Countries
  • For 7 days
  • Water Temperature
  • Satellite Maps
  • Weather Map
  • News
  • Weather Widgets
  • user-avatar
    Login

    Hourly Weather Uvarovskiy

    Today, 25 May, Friday

    Time Temperature Precipitation Wind Pressure Humidity
    00:00 +17°C° 0.2 mm 8 mps 744 mmHg 84%
    01:00 +16°C° 0 mm 7 mps 744 mmHg 84%
    02:00 +16°C° 0 mm 6 mps 744 mmHg 85%
    03:00 +17°C° 0 mm 4 mps 744 mmHg 88%
    04:00 +16°C° 0 mm 5 mps 744 mmHg 88%
    05:00 +16°C° 0 mm 6 mps 744 mmHg 88%
    06:00 +16°C° 0 mm 7 mps 745 mmHg 88%
    07:00 +17°C° 0 mm 7 mps 745 mmHg 85%
    08:00 +18°C° 0 mm 8 mps 745 mmHg 83%
    09:00 +20°C° 0 mm 8 mps 745 mmHg 80%
    10:00 +19°C° 0 mm 9 mps 746 mmHg 78%
    11:00 +19°C° 0 mm 9 mps 746 mmHg 77%
    12:00 +21°C° 0 mm 9 mps 746 mmHg 75%
    13:00 +21°C° 0 mm 9 mps 746 mmHg 73%
    14:00 +21°C° 0 mm 9 mps 747 mmHg 71%
    15:00 +21°C° 0 mm 9 mps 747 mmHg 69%
    16:00 +20°C° 0 mm 8 mps 748 mmHg 69%
    17:00 +18°C° 0 mm 8 mps 748 mmHg 69%
    18:00 +17°C° 0 mm 8 mps 748 mmHg 69%
    19:00 +15°C° 0 mm 8 mps 749 mmHg 67%
    20:00 +13°C° 0 mm 8 mps 750 mmHg 65%
    21:00 +11°C° 0 mm 8 mps 750 mmHg 62%
    22:00 +11°C° 0 mm 7 mps 751 mmHg 61%
    23:00 +10°C° 0 mm 7 mps 752 mmHg 59%

    Tomorrow, 26 May, Saturday

    Time Temperature Precipitation Wind Pressure Humidity
    00:00 +9°C° 0 mm 7 mps 752 mmHg 57%
    01:00 +8°C° 0 mm 6 mps 753 mmHg 58%
    02:00 +8°C° 0 mm 6 mps 754 mmHg 59%
    03:00 +7°C° 0 mm 6 mps 754 mmHg 59%
    04:00 +7°C° 0 mm 6 mps 755 mmHg 60%
    05:00 +7°C° 0 mm 6 mps 755 mmHg 61%
    06:00 +7°C° 0 mm 6 mps 756 mmHg 63%
    07:00 +8°C° 0 mm 7 mps 756 mmHg 59%
    08:00 +9°C° 0 mm 7 mps 757 mmHg 56%
    09:00 +10°C° 0 mm 8 mps 757 mmHg 52%
    10:00 +11°C° 0 mm 8 mps 757 mmHg 52%
    11:00 +12°C° 0 mm 7 mps 758 mmHg 51%
    12:00 +14°C° 0 mm 7 mps 758 mmHg 50%
    13:00 +14°C° 0 mm 7 mps 758 mmHg 50%
    14:00 +15°C° 0 mm 7 mps 758 mmHg 51%
    15:00 +15°C° 0 mm 6 mps 758 mmHg 51%
    16:00 +15°C° 0 mm 6 mps 758 mmHg 54%
    17:00 +14°C° 0 mm 5 mps 758 mmHg 58%
    18:00 +14°C° 0 mm 4 mps 758 mmHg 61%
    19:00 +12°C° 0 mm 4 mps 758 mmHg 65%
    20:00 +11°C° 0 mm 3 mps 758 mmHg 70%
    21:00 +9°C° 0 mm 3 mps 759 mmHg 74%
    22:00 +8°C° 0 mm 3 mps 759 mmHg 74%
    23:00 +8°C° 0 mm 2 mps 759 mmHg 75%

    Day after tomorrow, 27 May, Sunday

    Time Temperature Precipitation Wind Pressure Humidity
    00:00 +7°C° 0 mm 2 mps 760 mmHg 75%
    01:00 +7°C° 0 mm 2 mps 760 mmHg 76%
    02:00 +6°C° 0 mm 2 mps 760 mmHg 76%
    03:00 +7°C° 0 mm 1 mps 760 mmHg 77%
    04:00 +8°C° 0 mm 1 mps 760 mmHg 75%
    05:00 +9°C° 0 mm 1 mps 760 mmHg 73%
    06:00 +9°C° 0 mm 0 mps 760 mmHg 71%
    07:00 +11°C° 0 mm 1 mps 760 mmHg 66%
    08:00 +13°C° 0 mm 1 mps 760 mmHg 60%
    09:00 +15°C° 0 mm 1 mps 760 mmHg 54%
    10:00 +16°C° 0 mm 1 mps 759 mmHg 51%
    11:00 +18°C° 0 mm 1 mps 759 mmHg 48%
    12:00 +19°C° 0 mm 1 mps 759 mmHg 46%
    13:00 +19°C° 0 mm 1 mps 758 mmHg 46%
    14:00 +19°C° 0 mm 2 mps 758 mmHg 46%
    15:00 +19°C° 0 mm 2 mps 757 mmHg 46%
    16:00 +19°C° 0 mm 2 mps 756 mmHg 50%
    17:00 +19°C° 0 mm 2 mps 756 mmHg 55%
    18:00 +18°C° 0 mm 2 mps 755 mmHg 59%
    19:00 +17°C° 0 mm 2 mps 755 mmHg 63%
    20:00 +15°C° 0 mm 2 mps 755 mmHg 68%
    21:00 +12°C° 0 mm 3 mps 755 mmHg 72%
    22:00 +11°C° 0 mm 3 mps 754 mmHg 74%
    23:00 +11°C° 0 mm 3 mps 754 mmHg 76%

    28 May, Monday

    Time Temperature Precipitation Wind Pressure Humidity
    00:00 +10°C° 0 mm 3 mps 754 mmHg 78%
    01:00 +10°C° 0 mm 3 mps 754 mmHg 80%
    02:00 +9°C° 0 mm 3 mps 754 mmHg 81%
    03:00 +9°C° 0 mm 3 mps 753 mmHg 82%
    04:00 +10°C° 0 mm 4 mps 753 mmHg 82%
    05:00 +11°C° 0 mm 4 mps 753 mmHg 81%
    06:00 +12°C° 0 mm 4 mps 753 mmHg 81%
    07:00 +13°C° 0 mm 4 mps 754 mmHg 76%
    08:00 +14°C° 0 mm 4 mps 754 mmHg 72%
    09:00 +16°C° 0 mm 5 mps 754 mmHg 67%
    10:00 +16°C° 0 mm 5 mps 754 mmHg 61%
    11:00 +17°C° 0 mm 5 mps 754 mmHg 56%
    12:00 +19°C° 0 mm 5 mps 754 mmHg 50%
    13:00 +19°C° 0 mm 5 mps 754 mmHg 49%
    14:00 +19°C° 0 mm 5 mps 754 mmHg 49%
    15:00 +19°C° 0 mm 5 mps 754 mmHg 48%
    16:00 +17°C° 0 mm 5 mps 754 mmHg 52%
    17:00 +18°C° 0 mm 4 mps 754 mmHg 57%
    18:00 +18°C° 0 mm 4 mps 754 mmHg 62%
    19:00 +16°C° 0 mm 3 mps 755 mmHg 64%
    20:00 +13°C° 0 mm 3 mps 755 mmHg 67%
    21:00 +10°C° 0 mm 3 mps 755 mmHg 70%
    22:00 +10°C° 0 mm 3 mps 756 mmHg 72%
    23:00 +9°C° 0 mm 3 mps 756 mmHg 73%

    29 May, Tuesday

    Time Temperature Precipitation Wind Pressure Humidity
    00:00 +8°C° 0 mm 3 mps 756 mmHg 74%
    01:00 +8°C° 0 mm 2 mps 756 mmHg 74%
    02:00 +7°C° 0 mm 2 mps 757 mmHg 73%
    03:00 +7°C° 0 mm 2 mps 757 mmHg 73%
    04:00 +7°C° 0 mm 2 mps 757 mmHg 72%
    05:00 +8°C° 0 mm 2 mps 757 mmHg 72%
    06:00 +9°C° 0 mm 2 mps 757 mmHg 71%
    07:00 +11°C° 0 mm 3 mps 757 mmHg 65%
    08:00 +12°C° 0 mm 3 mps 757 mmHg 60%
    09:00 +14°C° 0 mm 4 mps 757 mmHg 54%
    10:00 +15°C° 0 mm 4 mps 756 mmHg 53%
    11:00 +16°C° 0 mm 5 mps 756 mmHg 52%
    12:00 +17°C° 0 mm 5 mps 756 mmHg 51%
    13:00 +19°C° 0 mm 6 mps 755 mmHg 52%
    14:00 +20°C° 0 mm 6 mps 755 mmHg 53%
    15:00 +20°C° 0 mm 7 mps 754 mmHg 54%
    16:00 +20°C° 0 mm 6 mps 754 mmHg 59%
    17:00 +20°C° 0 mm 4 mps 754 mmHg 63%
    18:00 +20°C° 0 mm 3 mps 753 mmHg 68%
    19:00 +18°C° 0 mm 3 mps 753 mmHg 73%
    20:00 +17°C° 0 mm 3 mps 753 mmHg 77%
    21:00 +14°C° 0 mm 3 mps 753 mmHg 82%
    22:00 +13°C° 0 mm 3 mps 753 mmHg 84%
    23:00 +14°C° 0 mm 2 mps 753 mmHg 87%

    30 May, Wednesday

    Time Temperature Precipitation Wind Pressure Humidity
    00:00 +13°C° 0 mm 2 mps 753 mmHg 89%
    01:00 +13°C° 0 mm 2 mps 753 mmHg 90%
    02:00 +13°C° 0 mm 2 mps 753 mmHg 90%
    03:00 +13°C° 0 mm 2 mps 753 mmHg 90%
    04:00 +13°C° 0 mm 2 mps 753 mmHg 88%
    05:00 +14°C° 0 mm 2 mps 752 mmHg 86%
    06:00 +14°C° 0 mm 3 mps 752 mmHg 85%
    07:00 +17°C° 0 mm 3 mps 752 mmHg 79%
    08:00 +18°C° 0 mm 4 mps 752 mmHg 73%
    09:00 +20°C° 0 mm 4 mps 751 mmHg 67%
    10:00 +21°C° 0 mm 5 mps 751 mmHg 63%
    11:00 +22°C° 0 mm 6 mps 750 mmHg 59%
    12:00 +23°C° 0 mm 7 mps 750 mmHg 55%
    13:00 +23°C° 0 mm 7 mps 749 mmHg 55%
    14:00 +24°C° 0 mm 7 mps 749 mmHg 55%
    15:00 +24°C° 0 mm 8 mps 748 mmHg 55%
    16:00 +23°C° 0 mm 7 mps 748 mmHg 60%
    17:00 +23°C° 0 mm 6 mps 747 mmHg 64%
    18:00 +22°C° 0 mm 5 mps 747 mmHg 68%
    19:00 +21°C° 0 mm 5 mps 747 mmHg 73%
    20:00 +19°C° 0 mm 5 mps 746 mmHg 77%
    21:00 +17°C° 0 mm 5 mps 746 mmHg 81%
    22:00 +17°C° 0 mm 5 mps 746 mmHg 82%
    23:00 +16°C° 0 mm 5 mps 745 mmHg 83%
    Show more